パンスターズ彗星

C/2015 H2 ( PanSTARRS )

English version
Home page
Updated on March 3, 2018

---------------------------------------------------------------------

・ プロフィール

発見日 2015年4月24日
発見光度 19.7等
発見者 Pan-STARRS 1 telescope (Haleakala)

・ 写真集

・ 軌道要素

Epoch 2016 Sept. 9.0 TT = JDT 2457640.5
T 2016 Sept. 13.25311 TT                                MPCW
q   4.9671953            (2000.0)            P               Q
z  -0.0006610      Peri.  287.90553     +0.17536427     +0.98040387
 +/-0.0000012      Node   350.69203     -0.55230725     +0.02250128
e   1.0032833      Incl.   33.70510     -0.81498716     +0.19570884
From 144 observations 2014 May 19-2017 Nov. 22, mean residual 0".6.

・ 光度変化

        m1 = 7.0 + 5 logΔ + 10.0 log r

---------------------------------------------------------------------

軌道要素はM.P.E.C. 2018-D91に掲載されたものです。
光度グラフはComet for Windowsで作成したものです。

---------------------------------------------------------------------

Copyright(C) Seiichi Yoshida (comet@aerith.net). All rights reserved.